Location: Felsheim
(48.7267°N, 10.7386°E)
Time: 13:08:14
(UTC+00:00)

STARLINK-1235 - Pass Details

Date: 09 April 2020
Orbit: 375 x 384 km, 53.0° (Epoch: 28 May)

Event Time Altitude Azimuth Distance (km) Brightness Sun altitude
Rises 18:11:30 0° 294° (WNW) 2,279 9.3 -2.6°
Reaches altitude 10° 18:13:35 10° 297° (WNW) 1,423 7.5 -3.0°
Maximum altitude 18:16:44 66° 20° (NNE) 430 3.1 -3.5°
Drops below altitude 10° 18:19:54 10° 104° (ESE) 1,417 5.0 -4.0°
Enters shadow 18:20:47 - 106° (ESE) 1,780 5.5 -4.1°
